(797455) 2011 HJ7
ephemeris date magn radius delta ra dec elong phase
Today4 Sep 202625.51.284 AU2.105 AU12h28m-02°56'26.5°20.5°
(797455) 2011 HJ7 - 2026-09-04
astro.vanbuitenen.nl


 
-1 year
-1 month
-1 day
Now
+1 day
+1 month
+1 year

The interactive orbit chart above shows the body's path through the solar system and its position at the given date. Green and blue lines are shown perpendicular to the ecliptic plane: Green if the path is above the ecliptic plane, blue if it is below. (Left-click and drag to rotate the view; Right-click and drag to move the view; Use scroll wheel to zoom in our out.)

The orbital elements of 2011 HJ7 are:

            e (Eccentricity)                : 0.5163182
            a (Semimajor axis)              : 1.2508764
            i (Inclination)                 : 1.11626
            Ω (Longitude of ascending node) : 34.31740
            ω (Argument of perihelion)      : 297.32649
            M (Mean anomaly)                : 235.35027
            Epoch                           : 2026 Jun 09

            L (Longitude of perihelion)     : -28.35167
            B (Latitude of perihelion)      : -0.99168
            P (Orbital period in years)     : 1.40            
        

The light curve chart below shows the estimated development of the minor planet's magnitude.


The all-sky chart below shows the path of the minor planet over the same period as the light curve. The current position is marked yellow.





The following chart shows the path of the minor planet in the next few days. The field of view is optimized for (~10x50) binoculars and finderscopes.




Ephemerides:
Date       Time       RA (2000)    DEC (2000)    delta   radius  elong  phase   PA    magn
2026-09-04 00:00 UT   12 28 01.5   -02 56 50     2.105    1.284   26.5   20.5   113   25.5 
2026-09-04 14:00 UT   12 29 27.8   -03 06 21     2.103    1.279   26.3   20.4   113   25.5 
2026-09-05 00:00 UT   12 30 29.7   -03 13 11     2.101    1.276   26.2   20.4   113   25.5 
2026-09-06 00:00 UT   12 32 59.0   -03 29 37     2.096    1.268   25.9   20.3   113   25.5 
2026-09-07 00:00 UT   12 35 29.5   -03 46 09     2.092    1.260   25.6   20.2   113   25.4 
2026-09-08 00:00 UT   12 38 01.1   -04 02 46     2.087    1.252   25.3   20.1   113   25.4 
2026-09-09 00:00 UT   12 40 33.9   -04 19 28     2.082    1.244   25.0   20.0   113   25.4 
2026-09-10 00:00 UT   12 43 08.0   -04 36 15     2.077    1.236   24.8   20.0   113   25.4 
2026-09-11 00:00 UT   12 45 43.3   -04 53 08     2.071    1.228   24.5   19.9   113   25.3 
2026-09-12 00:00 UT   12 48 19.8   -05 10 06     2.066    1.220   24.2   19.8   113   25.3 
2026-09-13 00:00 UT   12 50 57.7   -05 27 08     2.061    1.212   24.0   19.7   113   25.3 
2026-09-14 00:00 UT   12 53 36.9   -05 44 16     2.055    1.204   23.7   19.6   113   25.3 
2026-09-15 00:00 UT   12 56 17.4   -06 01 29     2.049    1.196   23.5   19.6   113   25.3 
2026-09-16 00:00 UT   12 58 59.3   -06 18 46     2.043    1.187   23.2   19.5   113   25.2 


    Terminology:
            
    delta:  distance between minor planet and earth in AU
    radius: distance between minor planet and sun in AU
    magn:   magnitude (brightness) estimate    
    ra:     right ascension in hours (24h = 360deg)
    dec:    declination in degrees
    elong:  elongation in degrees (angle sun-earth-minor planet)    
    phase:  phase angle in degrees (angle sun-minor planet-earth)        
    AU:     Astronomical Unit (mean distance between earth and sun: 149597870.7 km
    

Orbital elements provided by the MPC (Minor Planet Center).
Calculations by a modified version of AAPlus, a C# implementation of the AA+ project by PJ Naughter from the algorithms presented in the book "Astronomical Algorithms" by Jean Meeus.
NGC2000 dso catalog and star labels from VizieR as provided by the Strasbourg astronomical Data Center.
Tycho2 catalog from the ESO archive.